カタログに戻る

SL-14 R/B

運用中PO
NORAD 15495·ROCKET BODY·🇷🇺 Russia

打ち上げ Jan 24, 1985 から Plesetsk Cosmodrome

Loading…

次のパス (今後24時間)

TLE

最新Source: Space-Track

元期: Sep 14, 2026, 17:06 UTC

1 15495U 85009B   26257.71310942  .00000283  00000-0  29365-4 0  9997
2 15495  82.5195 261.0941 0018651 343.3027  16.7573 14.86246019229724

AllMySatでSL-14 R/Bをリアルタイム追跡

Download on the App Store